Location: Newark
(35.5300°N, 14.3000°E)
Time: 19:21:05
(UTC+00:00)

Tiangong 2 - Visible Passes

Search period start: 18 March 2019 00:00
Search period end: 28 March 2019 00:00
Orbit: 379 x 390 km, 42.8° (Epoch: 18 March)

Date Brightness Start Highest point End Pass type
(mag) Time Alt. Az. Time Alt. Az. Time Alt. Az.
18 Mar 3.1 03:52:48 17° NNW 03:54:13 22° N 03:56:48 10° ENE visible
19 Mar 4.1 02:56:05 15° NE 02:56:05 15° NE 02:57:04 10° NE visible
19 Mar 2.4 04:28:52 10° NW 04:31:50 36° NNE 04:34:49 10° E visible
20 Mar 2.8 03:31:37 25° N 03:32:13 26° NNE 03:34:59 10° ENE visible
21 Mar 4.7 02:35:01 11° ENE 02:35:01 11° ENE 02:35:09 10° ENE visible
21 Mar 1.6 04:07:14 15° NW 04:09:43 56° NNE 04:12:51 10° ESE visible
22 Mar 2.8 03:10:43 32° NE 03:10:43 32° NE 03:13:07 10° E visible
23 Mar 0.9 03:46:33 42° WNW 03:47:30 79° SSW 03:50:40 10° ESE visible
24 Mar 3.9 02:50:17 16° E 02:50:17 16° E 02:51:06 10° ESE visible
24 Mar 2.6 04:22:33 12° W 04:24:32 20° SW 04:26:58 10° SSE visible
25 Mar 2.7 03:26:28 25° SSE 03:26:28 25° SSE 03:28:09 10° SE visible
